Snowfall_Accumulation
0.0 0.0 0.0 0.0 0.0 0.1 0.1 0.1 0.1 0.1 0.1 0.1 0.1 0.1 0.1 0.1 0.2 0.1 0.1 0.1 0.1 0.1 0.1 0.1 0.1 0.0 0.0 0.0 0.0 0.0 0.0 0.0 0.1 0.2 0.3 0.5 0.4 0.3 0.2 0.2 0.3 0.4 0.5 0.4 0.4 0.6 0.8 0.9 0.9 0.8 0.7 0.5 0.4 0.3 0.3 0.3 0.3 0.3 0.4 0.6 0.8 0.9 0.9 0.9 1.0 0.9 0.9 1.1 1.3
0.0 0.0 0.0 0.0 0.0 0.0 0.0 0.0 0.1 0.1 0.1 0.1 0.1 0.1 0.1 0.1 0.1 0.1 0.1 0.1 0.1 0.1 0.1 0.0 0.0 0.0 0.0 0.0 0.0 0.0 0.1 0.1 0.2 0.4 0.5 0.3 0.2 0.2 0.2 0.2 0.3 0.4 0.5 0.5 0.7 1.0 1.1 1.0 1.0 0.8 0.7 0.6 0.5 0.5 0.4 0.3 0.3 0.5 0.6 0.7 0.8 0.9 1.0 1.1 0.9 0.8 0.8 1.0 1.1
0.0 0.0 0.0 0.0 0.0 0.0 0.0 0.0 0.1 0.1 0.1 0.1 0.1 0.1 0.1 0.1 0.1 0.1 0.1 0.1 0.1 0.1 0.1 0.1 0.0 0.0 0.0 0.0 0.0 0.1 0.1 0.2 0.4 0.5 0.5 0.2 0.1 0.2 0.2 0.3 0.4 0.5 0.6 0.7 0.9 1.1 1.1 1.0 0.9 0.9 0.8 0.7 0.6 0.6 0.5 0.3 0.4 0.6 0.7 0.7 0.9 1.0 1.1 1.2 1.0 0.9 0.8 0.9 1.0
0.0 0.0 0.0 0.0 0.0 0.0 0.0 0.0 0.1 0.1 0.1 0.1 0.1 0.1 0.1 0.1 0.1 0.1 0.1 0.1 0.1 0.1 0.0 0.0 0.1 0.1 0.1 0.1 0.1 0.1 0.3 0.4 0.5 0.4 0.3 0.1 0.2 0.2 0.3 0.4 0.4 0.5 0.5 0.8 0.9 1.0 0.9 0.7 0.7 0.7 0.7 0.6 0.6 0.6 0.5 0.6 0.6 0.7 0.8 0.7 0.8 1.0 1.1 1.1 1.0 1.0 1.1 1.2 1.2
0.0 0.0 0.0 0.0 0.0 0.0 0.0 0.0 0.1 0.1 0.1 0.1 0.1 0.1 0.1 0.1 0.1 0.1 0.1 0.1 0.1 0.1 0.0 0.0 0.1 0.1 0.1 0.1 0.1 0.2 0.4 0.5 0.3 0.2 0.2 0.2 0.2 0.3 0.3 0.4 0.5 0.6 0.7 0.8 0.9 0.8 0.7 0.6 0.7 0.7 0.7 0.6 0.7 0.7 0.6 0.5 0.6 0.7 0.8 0.9 1.0 1.1 1.2 1.3 1.2 1.3 1.4 1.3 1.3
0.0 0.0 0.0 0.0 0.0 0.0 0.0 0.0 0.0 0.0 0.1 0.1 0.1 0.1 0.1 0.1 0.1 0.1 0.1 0.1 0.1 0.1 0.1 0.1 0.1 0.1 0.1 0.1 0.2 0.4 0.5 0.2 0.1 0.1 0.2 0.2 0.3 0.4 0.4 0.4 0.5 0.6 0.7 0.8 0.7 0.6 0.6 0.7 0.9 0.9 0.8 0.6 0.7 0.6 0.5 0.4 0.6 0.7 0.8 1.1 1.2 1.2 1.2 1.3 1.4 1.4 1.5 1.6 1.7
0.0 0.0 0.0 0.0 0.0 0.0 0.0 0.0 0.0 0.0 0.1 0.1 0.1 0.1 0.1 0.1 0.1 0.1 0.0 0.0 0.1 0.1 0.1 0.1 0.1 0.1 0.2 0.3 0.4 0.5 0.4 0.1 0.1 0.1 0.2 0.3 0.3 0.4 0.5 0.5 0.6 0.7 0.8 0.9 0.7 0.6 0.7 0.8 1.1 1.1 1.0 1.0 0.7 0.6 0.5 0.6 0.7 0.9 1.1 1.2 1.1 1.2 1.4 1.5 1.5 1.5 1.6 1.7 2.1
0.0 0.0 0.0 0.0 0.0 0.0 0.0 0.0 0.0 0.1 0.1 0.1 0.1 0.1 0.1 0.1 0.1 0.0 0.0 0.0 0.1 0.1 0.1 0.2 0.2 0.2 0.3 0.5 0.6 0.5 0.3 0.2 0.2 0.2 0.3 0.3 0.4 0.5 0.6 0.6 0.7 0.8 0.9 0.9 0.7 0.7 0.8 0.9 1.0 1.1 1.0 0.9 0.7 0.7 0.7 0.8 0.8 1.0 1.2 1.3 1.2 1.3 1.5 1.6 1.8 1.8 1.8 2.0 2.4
0.0 0.0 0.0 0.0 0.0 0.0 0.0 0.0 0.0 0.1 0.1 0.1 0.1 0.1 0.1 0.1 0.1 0.0 0.0 0.1 0.1 0.1 0.1 0.1 0.2 0.3 0.4 0.6 0.4 0.3 0.2 0.3 0.3 0.4 0.4 0.4 0.5 0.7 0.8 0.8 0.8 0.9 0.9 0.8 0.8 0.8 0.9 0.9 1.1 1.1 1.0 1.1 1.0 0.9 0.9 0.8 0.9 1.2 1.4 1.6 1.5 1.3 1.2 1.3 1.5 1.7 1.9 2.2 2.5
0.0 0.0 0.0 0.0 0.0 0.0 0.0 0.0 0.1 0.1 0.1 0.1 0.1 0.1 0.1 0.1 0.1 0.1 0.1 0.1 0.1 0.1 0.1 0.1 0.3 0.4 0.5 0.5 0.3 0.3 0.3 0.3 0.4 0.4 0.5 0.5 0.6 0.8 1.0 1.2 1.2 1.3 1.2 1.0 1.0 0.9 0.9 1.0 1.1 1.1 1.0 1.0 1.2 1.1 1.0 0.9 1.2 1.5 1.8 1.9 1.8 1.5 1.2 1.3 1.6 1.8 2.1 2.4 2.5
0.0 0.0 0.0 0.0 0.0 0.1 0.1 0.1 0.1 0.1 0.1 0.1 0.1 0.1 0.1 0.1 0.1 0.1 0.1 0.1 0.1 0.1 0.1 0.1 0.4 0.5 0.5 0.4 0.3 0.3 0.3 0.2 0.4 0.5 0.6 0.6 0.7 0.9 1.1 1.3 1.6 1.8 1.8 1.7 1.4 1.3 1.2 1.2 1.2 1.2 1.2 1.3 1.5 1.5 1.3 1.1 1.5 1.7 1.7 1.6 1.6 1.5 1.5 1.5 1.7 2.0 2.3 2.4 2.4
0.0 0.0 0.0 0.0 0.1 0.1 0.1 0.1 0.1 0.2 0.2 0.1 0.1 0.1 0.1 0.1 0.1 0.1 0.1 0.1 0.1 0.2 0.2 0.2 0.4 0.4 0.4 0.4 0.4 0.3 0.3 0.3 0.5 0.7 0.7 0.8 0.8 1.0 1.1 1.2 1.8 2.2 2.2 1.8 1.6 1.5 1.4 1.4 1.4 1.4 1.5 1.7 1.9 1.8 1.7 1.5 1.7 1.8 1.8 1.7 1.6 1.7 1.8 1.8 1.8 2.0 2.1 2.3 2.5
0.0 0.1 0.1 0.1 0.1 0.1 0.1 0.1 0.2 0.2 0.2 0.2 0.1 0.1 0.1 0.1 0.1 0.1 0.1 0.1 0.2 0.2 0.3 0.3 0.4 0.4 0.4 0.4 0.4 0.3 0.3 0.4 0.5 0.7 0.9 1.0 1.1 1.1 1.1 1.3 1.9 2.5 2.6 1.9 1.7 1.6 1.5 1.5 1.6 1.6 1.6 1.9 2.1 2.1 2.1 2.1 2.1 2.2 2.3 2.1 2.0 1.9 1.9 1.9 1.8 1.8 2.0 2.3 2.7
0.0 0.1 0.1 0.1 0.1 0.1 0.2 0.2 0.2 0.2 0.2 0.2 0.2 0.2 0.2 0.2 0.1 0.1 0.1 0.1 0.2 0.3 0.3 0.4 0.4 0.3 0.4 0.4 0.4 0.4 0.4 0.4 0.5 0.7 0.9 1.2 1.2 1.3 1.3 1.5 2.0 2.5 2.7 2.0 1.7 1.6 1.6 1.8 1.7 1.6 1.7 1.8 2.2 2.2 2.2 2.2 2.4 2.6 2.8 2.7 2.5 2.2 2.0 1.8 1.8 1.9 2.3 2.9 3.0
0.1 0.1 0.1 0.1 0.1 0.2 0.2 0.3 0.3 0.3 0.2 0.2 0.2 0.2 0.2 0.2 0.1 0.1 0.2 0.2 0.2 0.3 0.3 0.3 0.3 0.3 0.3 0.3 0.4 0.4 0.4 0.4 0.4 0.7 1.1 1.3 1.3 1.4 1.5 1.6 1.9 2.5 2.7 2.0 1.8 1.7 1.6 1.8 1.7 1.7 1.9 2.1 2.3 2.4 2.3 2.3 2.5 2.8 3.0 2.8 2.6 2.4 2.1 2.0 1.8 2.2 2.8 3.6 3.4
0.1 0.1 0.1 0.1 0.2 0.2 0.2 0.3 0.3 0.3 0.3 0.2 0.2 0.2 0.2 0.2 0.2 0.2 0.2 0.2 0.2 0.3 0.3 0.3 0.3 0.3 0.3 0.3 0.4 0.4 0.4 0.4 0.4 0.7 1.1 1.4 1.5 1.5 1.5 1.6 2.1 2.7 2.8 2.2 1.9 1.5 1.3 1.4 1.6 1.8 2.1 2.7 2.7 2.9 3.0 2.9 2.9 2.8 2.7 2.6 2.6 2.5 2.4 2.3 2.7 3.2 3.6 3.5 3.6
0.1 0.1 0.2 0.2 0.2 0.3 0.3 0.3 0.3 0.3 0.3 0.2 0.2 0.2 0.2 0.2 0.2 0.2 0.2 0.2 0.2 0.2 0.2 0.2 0.2 0.3 0.4 0.4 0.4 0.4 0.5 0.5 0.5 0.6 1.0 1.6 1.7 1.7 1.8 1.9 2.4 2.9 3.0 2.3 1.8 1.5 1.2 1.2 1.4 1.8 2.4 3.2 3.3 3.7 4.0 3.7 3.4 3.1 2.8 2.6 2.6 2.7 2.9 3.0 3.8 4.1 3.9 3.4 3.5
0.2 0.2 0.2 0.2 0.3 0.3 0.3 0.4 0.3 0.3 0.2 0.2 0.2 0.2 0.2 0.2 0.2 0.2 0.2 0.2 0.2 0.2 0.2 0.2 0.2 0.3 0.4 0.5 0.5 0.5 0.5 0.5 0.6 0.8 1.1 1.6 1.8 1.9 2.0 2.0 2.5 3.0 3.2 3.0 2.3 1.8 1.6 1.4 1.5 1.7 2.1 2.7 3.0 3.6 4.1 3.9 3.6 3.2 2.9 2.7 2.9 3.0 3.3 3.7 4.0 3.8 3.5 3.3 3.4
0.2 0.2 0.2 0.3 0.3 0.3 0.3 0.3 0.3 0.3 0.2 0.2 0.2 0.2 0.2 0.2 0.1 0.1 0.2 0.2 0.2 0.2 0.2 0.2 0.2 0.3 0.3 0.5 0.4 0.4 0.5 0.5 0.6 0.7 0.9 1.2 1.6 1.8 1.9 2.0 2.5 3.0 3.6 4.0 3.1 2.4 2.0 1.9 1.7 1.7 1.8 2.2 2.6 2.9 3.1 3.3 3.0 2.8 2.8 3.0 3.3 3.4 3.6 3.9 3.2 2.9 2.8 3.0 3.4
0.2 0.2 0.3 0.3 0.3 0.3 0.3 0.3 0.3 0.2 0.2 0.2 0.2 0.2 0.2 0.1 0.1 0.1 0.1 0.1 0.1 0.1 0.1 0.2 0.2 0.3 0.3 0.4 0.4 0.3 0.4 0.4 0.5 0.6 0.7 0.8 1.4 1.8 1.9 2.2 2.6 3.3 4.0 4.5 3.8 3.1 2.6 2.4 2.1 2.0 2.1 2.4 2.5 2.6 2.5 2.2 2.1 2.4 2.9 3.5 3.6 3.6 3.5 3.4 2.7 2.4 2.5 2.9 3.3
0.3 0.3 0.3 0.3 0.3 0.3 0.3 0.2 0.2 0.2 0.1 0.2 0.2 0.2 0.1 0.1 0.1 0.1 0.1 0.0 0.0 0.1 0.1 0.1 0.2 0.3 0.4 0.4 0.4 0.3 0.3 0.4 0.4 0.5 0.6 0.7 1.2 1.6 1.9 2.3 2.8 3.5 4.1 4.6 4.4 3.9 3.3 2.6 2.3 2.5 2.7 3.0 3.3 3.7 3.5 2.2 2.5 3.0 3.5 3.6 3.3 3.3 3.2 2.8 2.4 2.3 2.6 3.2 3.4
0.3 0.2 0.2 0.3 0.2 0.2 0.2 0.2 0.2 0.1 0.1 0.1 0.2 0.1 0.1 0.1 0.1 0.1 0.1 0.0 0.0 0.1 0.1 0.1 0.2 0.3 0.4 0.5 0.4 0.4 0.3 0.3 0.3 0.3 0.4 0.6 1.0 1.4 1.8 2.2 2.8 3.4 4.0 4.4 5.1 4.6 3.6 2.5 2.6 3.0 3.8 4.9 6.0 5.2 3.6 2.1 2.5 3.2 3.5 3.1 3.0 3.1 3.0 2.1 2.0 2.1 2.4 3.0 3.5
0.2 0.2 0.2 0.2 0.2 0.2 0.2 0.1 0.1 0.1 0.1 0.1 0.1 0.1 0.1 0.1 0.1 0.1 0.0 0.0 0.0 0.0 0.1 0.1 0.1 0.2 0.3 0.4 0.3 0.3 0.3 0.3 0.3 0.3 0.4 0.6 0.9 1.3 1.6 2.0 2.6 3.2 3.9 4.9 7.3 6.4 4.5 3.5 3.6 4.6 6.2 8.0 5.8 3.7 2.4 2.4 3.5 4.5 4.6 3.2 3.4 3.0 2.3 1.7 1.8 2.0 2.3 2.6 2.8
0.2 0.2 0.2 0.2 0.1 0.1 0.1 0.1 0.1 0.1 0.1 0.1 0.1 0.1 0.1 0.1 0.1 0.0 0.0 0.0 0.0 0.0 0.1 0.1 0.1 0.2 0.2 0.3 0.2 0.2 0.3 0.3 0.4 0.4 0.5 0.6 0.8 1.2 1.6 1.9 2.5 3.0 4.1 6.1 9.7 9.2 7.2 6.6 7.1 8.1 8.4 6.6 4.1 3.4 3.9 5.2 7.0 6.9 5.7 4.1 3.6 2.7 1.8 1.6 1.7 1.9 2.2 2.3 2.3
0.1 0.1 0.1 0.1 0.1 0.1 0.1 0.1 0.1 0.1 0.1 0.1 0.1 0.1 0.1 0.0 0.0 0.0 0.0 0.0 0.0 0.0 0.0 0.1 0.1 0.1 0.2 0.2 0.1 0.2 0.3 0.4 0.5 0.6 0.7 0.8 1.0 1.2 1.6 1.9 2.5 3.0 4.4 7.5 11.1 11.0 9.6 9.6 12.7 13.5 11.1 4.8 4.7 5.2 6.5 8.4 8.0 6.1 4.2 4.0 3.8 2.8 1.9 1.9 1.8 1.8 1.9 2.0 2.0
0.1 0.1 0.1 0.1 0.1 0.1 0.1 0.1 0.1 0.1 0.1 0.1 0.1 0.0 0.1 0.1 0.0 0.0 0.0 0.0 0.0 0.0 0.0 0.1 0.1 0.1 0.1 0.1 0.2 0.3 0.5 0.6 0.7 0.8 0.9 1.0 1.1 1.3 1.5 2.0 2.6 3.6 5.2 7.8 10.3 10.1 9.3 10.0 14.0 13.4 9.8 4.7 5.7 7.3 8.9 9.5 6.1 4.3 3.6 3.6 2.8 2.3 2.2 2.7 2.1 1.8 1.7 1.7 1.9
0.1 0.1 0.1 0.1 0.1 0.1 0.1 0.0 0.1 0.1 0.1 0.1 0.1 0.0 0.0 0.0 0.0 0.0 0.0 0.0 0.0 0.0 0.0 0.1 0.1 0.1 0.2 0.3 0.4 0.5 0.6 0.8 0.9 0.9 0.9 0.9 1.0 1.1 1.4 1.9 2.3 4.4 6.9 8.5 9.9 9.4 8.9 10.5 14.5 12.2 7.5 3.9 6.7 9.2 9.8 6.7 4.7 3.8 3.4 3.0 2.4 2.2 2.3 2.7 2.2 1.9 1.8 1.8 1.9
0.1 0.1 0.1 0.1 0.1 0.1 0.1 0.1 0.1 0.1 0.1 0.0 0.0 0.0 0.0 0.0 0.0 0.0 0.1 0.1 0.0 0.0 0.1 0.1 0.2 0.3 0.4 0.5 0.6 0.6 0.7 0.8 0.8 0.7 0.7 0.6 0.6 0.8 1.1 1.8 2.7 4.0 6.0 8.5 9.7 9.4 9.4 11.6 14.0 10.5 5.5 3.3 4.7 6.8 7.5 4.7 4.0 3.4 2.9 2.4 2.3 2.4 2.7 3.2 3.7 3.0 2.1 2.0 2.2
0.1 0.1 0.1 0.1 0.1 0.1 0.1 0.1 0.1 0.1 0.1 0.0 0.0 0.0 0.0 0.0 0.0 0.0 0.0 0.0 0.0 0.1 0.1 0.2 0.3 0.4 0.5 0.5 0.5 0.5 0.6 0.6 0.5 0.5 0.4 0.4 0.4 0.6 0.9 1.6 2.9 5.1 7.4 8.7 9.8 10.1 10.5 11.6 11.2 8.0 4.4 2.9 4.6 7.2 7.8 3.8 3.3 2.7 2.2 2.2 2.4 2.8 3.1 3.1 3.6 2.9 2.1 2.4 2.5
0.1 0.1 0.1 0.1 0.1 0.1 0.1 0.1 0.1 0.1 0.1 0.0 0.0 0.0 0.0 0.0 0.1 0.0 0.0 0.0 0.0 0.1 0.1 0.2 0.3 0.3 0.3 0.4 0.4 0.4 0.4 0.4 0.3 0.3 0.3 0.3 0.5 0.6 0.9 1.4 2.7 6.1 9.2 9.8 10.1 12.6 14.1 11.4 8.4 5.7 3.6 2.5 4.4 5.7 5.9 4.0 2.7 2.0 1.9 2.2 2.6 2.8 2.8 2.8 3.4 2.8 2.0 2.3 2.3
0.1 0.1 0.1 0.1 0.1 0.1 0.1 0.1 0.1 0.1 0.0 0.0 0.0 0.0 0.1 0.1 0.1 0.0 0.0 0.0 0.0 0.1 0.1 0.1 0.1 0.1 0.2 0.2 0.2 0.2 0.3 0.3 0.3 0.3 0.3 0.4 0.5 0.7 0.9 1.2 2.2 6.5 10.5 10.9 9.9 13.4 15.6 10.4 5.8 3.5 2.5 1.9 4.4 5.0 4.5 3.6 2.7 2.0 1.8 2.4 2.7 2.7 2.5 2.7 3.4 2.7 1.9 2.0 2.1
0.1 0.1 0.1 0.1 0.1 0.1 0.1 0.1 0.1 0.1 0.0 0.1 0.1 0.1 0.1 0.1 0.0 0.0 0.0 0.0 0.1 0.1 0.1 0.1 0.1 0.1 0.1 0.2 0.2 0.2 0.2 0.2 0.2 0.3 0.5 0.6 0.7 0.8 0.9 1.1 1.7 6.1 10.8 12.2 10.5 11.1 11.3 8.6 3.9 2.3 2.1 1.9 4.0 4.3 3.6 2.9 2.1 1.7 1.6 1.8 2.2 2.3 2.6 3.2 4.1 3.3 2.0 1.8 1.9
0.1 0.1 0.1 0.1 0.1 0.1 0.1 0.1 0.1 0.1 0.1 0.1 0.1 0.1 0.1 0.1 0.0 0.0 0.0 0.0 0.0 0.1 0.1 0.1 0.1 0.1 0.2 0.3 0.3 0.3 0.3 0.3 0.3 0.4 0.6 0.6 0.7 0.7 0.8 0.9 1.2 5.0 9.8 13.2 10.7 12.0 13.1 10.1 4.1 2.3 2.5 2.5 3.2 3.1 2.7 2.1 1.8 1.7 1.7 2.0 2.0 2.0 2.3 3.3 5.0 4.3 2.8 2.1 1.8
0.1 0.1 0.1 0.1 0.1 0.1 0.1 0.1 0.1 0.1 0.1 0.1 0.1 0.1 0.1 0.0 0.0 0.1 0.1 0.0 0.1 0.0 0.0 0.0 0.1 0.1 0.2 0.2 0.3 0.4 0.4 0.4 0.4 0.4 0.5 0.5 0.5 0.5 0.6 0.6 0.9 3.4 7.4 12.1 10.2 12.3 17.6 25.2 8.7 3.2 3.2 3.1 2.5 2.3 2.1 1.7 1.6 1.8 2.0 2.0 1.7 1.5 1.8 2.9 4.8 5.0 4.2 2.7 2.1
0.1 0.1 0.1 0.1 0.1 0.1 0.1 0.1 0.1 0.1 0.1 0.1 0.1 0.1 0.0 0.1 0.1 0.1 0.1 0.1 0.1 0.0 0.0 0.0 0.0 0.0 0.1 0.1 0.2 0.3 0.4 0.4 0.4 0.3 0.3 0.3 0.4 0.4 0.4 0.5 0.6 1.8 4.6 9.4 8.9 12.1 17.8 24.6 10.6 5.0 3.8 3.3 2.1 1.8 1.9 1.7 1.8 2.0 2.1 1.8 1.6 1.5 1.6 1.9 2.6 4.3 5.2 3.5 2.5
0.1 0.1 0.1 0.1 0.1 0.1 0.1 0.1 0.1 0.1 0.1 0.1 0.1 0.1 0.1 0.1 0.1 0.1 0.1 0.1 0.1 0.1 0.0 0.0 0.0 0.0 0.1 0.1 0.2 0.3 0.3 0.3 0.3 0.3 0.2 0.2 0.3 0.3 0.4 0.4 0.5 0.7 2.3 6.5 7.2 11.1 17.0 23.4 10.4 5.4 4.6 3.9 2.5 1.9 1.8 1.9 2.2 2.2 2.0 1.9 1.7 1.6 1.7 1.9 2.5 4.2 5.6 5.4 3.9
0.0 0.1 0.1 0.1 0.1 0.1 0.1 0.1 0.1 0.1 0.1 0.1 0.1 0.1 0.1 0.1 0.1 0.1 0.1 0.1 0.1 0.1 0.1 0.0 0.0 0.0 0.1 0.1 0.2 0.2 0.3 0.3 0.3 0.2 0.2 0.2 0.2 0.4 0.5 0.5 0.5 0.6 1.6 4.4 5.5 9.9 15.7 21.5 10.2 6.5 6.5 6.4 4.4 2.8 2.0 2.4 2.5 2.3 2.0 2.0 1.9 1.8 1.8 1.9 2.3 3.5 5.2 6.9 6.4
0.0 0.0 0.1 0.1 0.1 0.1 0.1 0.1 0.1 0.1 0.1 0.1 0.1 0.1 0.1 0.1 0.1 0.1 0.1 0.1 0.1 0.1 0.1 0.1 0.1 0.1 0.1 0.1 0.2 0.2 0.2 0.2 0.2 0.2 0.3 0.2 0.3 0.4 0.6 0.5 0.4 0.5 1.0 2.4 3.6 7.9 13.7 19.5 9.3 6.5 7.1 7.0 5.1 3.3 2.4 3.0 2.8 2.5 2.2 2.0 2.0 1.9 1.8 1.8 2.0 2.8 4.0 5.3 5.9
0.0 0.0 0.1 0.1 0.1 0.1 0.1 0.1 0.1 0.1 0.1 0.1 0.1 0.1 0.1 0.1 0.1 0.1 0.1 0.1 0.1 0.1 0.1 0.1 0.1 0.1 0.1 0.1 0.2 0.2 0.2 0.2 0.2 0.2 0.3 0.3 0.3 0.5 0.6 0.5 0.4 0.4 0.6 0.9 2.1 5.8 11.1 17.1 8.6 6.3 7.0 7.3 5.2 3.4 2.5 2.9 3.1 2.8 2.3 1.8 2.1 2.0 1.8 1.6 1.7 2.0 2.7 3.6 4.3
0.0 0.0 0.1 0.1 0.1 0.1 0.1 0.1 0.1 0.1 0.1 0.2 0.2 0.2 0.2 0.1 0.1 0.1 0.1 0.1 0.1 0.1 0.1 0.2 0.1 0.1 0.1 0.2 0.2 0.3 0.2 0.2 0.2 0.2 0.2 0.3 0.3 0.4 0.5 0.4 0.4 0.4 0.5 0.6 1.5 4.3 8.4 13.2 7.8 6.6 7.6 8.8 5.4 3.4 2.8 3.4 3.3 2.9 2.4 1.8 2.0 2.0 1.8 1.5 1.4 1.5 1.9 2.8 3.1
0.0 0.0 0.1 0.1 0.1 0.1 0.1 0.1 0.1 0.1 0.1 0.2 0.2 0.2 0.2 0.1 0.1 0.1 0.1 0.1 0.1 0.1 0.2 0.2 0.1 0.1 0.2 0.2 0.3 0.3 0.3 0.2 0.2 0.2 0.2 0.2 0.3 0.3 0.3 0.3 0.4 0.4 0.4 0.4 1.1 3.2 6.1 9.6 6.7 6.6 8.3 11.0 5.8 3.5 3.0 3.2 2.8 2.4 2.1 1.9 1.8 1.9 2.0 1.5 1.3 1.4 1.8 2.6 2.8